Wind_Speed
15 15 14 13 12 12 11 10 8 7 7 6 5 5 5 6 8 8 7 5 3 1 1 2 2 2 2 2 3 5 7 7 7 7 7 7 8 9 10 10 11 11 10 10 10 11 10 9 9 7 6 7 8 9 9 11 12 14 15 14 12 11 10 10 8 8 12 15 17 18 16 15 15 14 13 13 13 11 11 11 11 12 13 13 14
16 16 15 13 11 10 10 9 7 7 8 7 7 7 7 8 9 8 6 4 2 2 3 3 2 2 3 4 5 6 7 7 7 6 6 7 7 8 9 10 11 11 11 12 12 12 12 11 10 9 9 9 10 10 10 11 12 13 14 14 14 13 12 11 10 9 11 15 17 18 18 17 17 16 16 16 16 15 14 13 12 12 13 14 14
16 15 14 12 11 10 9 8 8 9 9 9 8 8 8 8 8 7 5 4 3 4 4 3 3 4 4 5 5 5 5 5 5 5 6 7 7 8 8 9 10 11 11 12 12 13 13 13 12 11 11 12 12 11 10 10 11 11 13 13 13 14 13 12 12 11 11 14 16 17 17 18 18 19 18 18 18 18 17 15 14 13 13 13 15
16 14 13 12 12 11 10 10 10 10 9 9 8 7 7 7 7 5 5 4 3 3 2 2 2 2 2 2 3 3 4 4 5 5 5 6 8 8 9 10 11 12 12 12 13 13 14 14 13 12 13 14 14 13 11 11 11 10 11 12 13 14 15 15 15 14 13 14 15 16 18 19 19 19 19 19 19 18 18 18 17 16 15 14 15
16 15 14 14 13 12 12 12 11 10 10 10 9 7 6 6 5 4 3 3 2 1 0 0 1 1 1 2 3 3 4 5 5 6 7 8 9 10 11 11 12 12 12 12 13 13 14 15 14 13 14 15 15 14 13 13 13 12 12 13 13 15 16 17 18 18 17 15 16 18 19 19 19 19 19 19 19 18 18 19 19 19 18 17 17
17 16 16 16 15 15 14 14 13 11 10 9 8 7 6 5 4 3 2 1 1 1 1 1 1 2 2 3 4 5 6 6 6 7 8 8 9 9 10 10 11 11 12 12 13 14 14 14 14 14 14 15 16 16 16 16 15 14 14 15 15 15 15 17 19 20 20 18 17 18 18 18 19 19 19 19 19 18 19 20 21 21 20 19 19
19 18 17 17 17 17 17 16 13 11 9 7 6 6 5 3 2 2 2 1 1 1 1 2 2 3 3 4 5 6 6 6 7 7 8 8 9 9 9 10 11 11 12 12 13 14 15 15 15 15 15 16 17 17 17 17 16 16 16 16 16 16 16 17 18 20 20 19 17 16 17 17 18 19 19 19 19 19 18 18 19 20 20 19 18
20 19 19 18 18 18 18 16 14 12 10 7 6 6 4 3 2 2 2 1 0 1 1 2 3 4 5 6 6 6 6 7 8 8 9 9 9 9 10 10 11 12 13 14 14 15 16 17 17 17 17 16 16 17 17 17 17 17 17 16 16 16 18 19 19 19 18 17 15 15 16 16 16 17 18 18 18 19 18 16 14 17 20 20 19
20 19 19 20 18 17 16 15 13 11 9 7 7 6 4 2 2 2 1 1 1 1 1 2 3 5 5 6 6 6 7 8 9 9 9 9 9 10 11 11 12 13 14 15 16 16 17 17 17 17 17 17 16 16 17 17 18 18 18 17 17 18 18 19 19 18 17 17 16 15 15 15 15 15 15 16 17 17 18 17 14 15 19 21 21
19 19 20 20 17 15 15 14 13 12 10 9 8 6 4 3 2 2 1 1 1 1 1 3 4 5 5 6 6 7 8 8 8 8 8 9 10 10 11 11 12 13 14 15 15 16 16 16 16 17 17 17 17 17 18 18 19 19 19 19 19 19 19 19 19 18 17 17 16 14 13 13 14 14 14 16 16 16 17 17 15 15 16 16 18
20 20 20 18 16 15 14 14 14 13 11 10 8 6 4 3 2 2 2 2 1 1 2 3 5 5 6 6 7 7 7 7 7 8 8 8 9 9 10 11 12 13 14 15 16 16 16 16 16 16 17 18 18 19 19 20 20 21 21 21 20 20 20 20 20 19 18 17 16 15 14 14 15 16 16 17 17 17 17 16 14 14 13 10 11
21 20 19 18 17 17 16 16 15 14 12 11 9 7 5 4 3 3 2 1 0 2 3 4 5 6 6 6 7 7 7 6 7 7 8 9 9 10 11 12 13 14 16 17 17 17 17 17 17 17 17 18 18 19 20 20 21 21 21 21 21 21 21 21 21 21 19 18 18 18 17 17 18 18 17 17 18 17 16 14 12 13 12 10 9
22 21 19 17 15 14 13 13 12 12 11 9 6 4 3 3 3 2 1 0 1 3 4 5 5 6 7 7 7 7 7 7 7 9 11 12 12 12 13 14 15 16 18 18 18 17 17 18 18 18 18 18 19 19 20 20 20 20 20 21 21 21 21 21 20 21 20 20 20 20 20 19 18 17 16 15 14 13 12 12 13 13 12 12 12
21 18 13 10 10 10 10 10 11 11 9 7 4 0 3 4 4 3 1 1 3 4 4 4 5 6 7 7 8 8 8 8 10 11 13 14 14 14 14 15 16 17 18 19 19 18 18 17 18 19 19 19 19 20 20 20 21 21 22 22 23 22 22 21 21 21 20 19 19 19 18 17 16 16 16 15 13 12 12 12 13 13 13 14 16
16 11 9 11 15 16 14 13 13 12 8 5 4 1 6 5 4 3 2 3 4 4 3 4 6 7 7 8 8 9 9 10 12 13 14 14 14 14 14 15 16 17 17 17 16 16 16 16 18 19 19 20 20 21 21 21 21 22 23 24 24 23 23 23 22 21 20 19 18 18 17 16 17 17 16 16 15 15 15 15 15 16 17 18 19
12 12 13 15 16 15 12 9 11 10 6 2 1 5 7 5 5 3 3 3 2 2 4 6 7 8 9 9 9 10 11 12 13 13 13 13 14 14 14 15 16 17 17 16 16 16 17 18 20 21 21 22 22 23 23 22 21 21 23 24 25 24 25 26 25 22 22 21 20 20 19 19 18 18 17 17 16 17 18 18 18 19 18 16 15
14 14 13 8 6 7 6 5 6 6 4 5 8 9 6 6 5 3 2 1 3 4 6 8 9 11 11 9 10 11 12 12 12 12 12 13 13 14 15 16 18 18 18 18 18 19 20 21 22 23 24 24 25 26 26 24 23 23 23 23 23 24 27 29 26 23 22 22 22 22 22 22 21 20 20 19 19 19 18 17 17 17 15 11 9
12 10 8 6 7 7 8 7 6 6 8 10 10 6 5 5 4 3 3 4 6 7 9 11 12 12 11 9 9 10 11 11 10 11 12 13 14 15 16 17 18 19 20 20 21 21 22 23 24 24 25 26 27 28 28 27 26 26 25 24 22 23 28 29 26 25 24 22 22 23 24 24 24 23 23 22 21 20 18 18 18 17 15 12 11
11 13 12 10 11 11 10 7 6 7 8 7 6 4 4 4 3 4 6 8 10 10 11 11 10 9 8 8 8 9 10 11 10 12 14 14 15 16 17 17 19 20 21 22 23 23 24 25 26 27 27 28 28 29 29 28 28 28 27 24 22 25 29 28 25 25 24 23 24 25 25 24 24 24 24 24 22 21 20 20 20 19 17 16 15
13 16 14 12 11 10 8 6 5 5 5 4 3 4 3 3 5 7 9 10 10 9 8 7 7 7 6 7 8 9 11 13 13 14 15 15 15 16 17 18 20 21 22 23 24 25 27 28 29 29 28 28 29 29 29 28 28 28 28 26 25 26 28 28 26 25 25 25 26 26 27 26 24 24 24 24 24 24 23 22 22 22 21 20 18
13 15 14 12 10 8 7 5 4 4 4 3 3 4 4 5 7 8 7 6 6 6 5 6 6 6 6 7 9 11 12 13 14 15 15 15 15 15 16 19 20 21 22 23 24 25 26 28 29 29 29 28 29 29 29 29 29 29 30 29 27 27 29 30 29 26 25 26 26 26 26 26 23 23 24 25 26 26 25 25 24 25 25 23 21
8 11 10 8 6 6 7 7 5 4 4 4 4 4 4 4 4 3 3 4 5 5 6 6 7 7 8 9 11 12 12 12 14 15 15 16 16 16 17 18 18 19 19 20 22 24 26 27 29 30 30 29 30 31 32 32 31 31 31 30 29 29 29 29 26 21 21 23 23 23 24 23 21 21 23 24 26 26 26 25 25 25 26 26 25
10 10 9 9 9 8 7 6 5 5 4 4 4 3 1 0 1 2 4 5 5 5 6 7 8 10 11 11 12 12 12 13 15 16 16 16 17 17 18 18 17 17 18 21 23 25 27 28 30 30 30 31 31 31 31 31 30 30 29 28 28 27 26 24 20 17 18 20 21 21 21 21 21 22 21 21 23 25 26 26 25 25 25 25 26
13 11 11 10 9 7 6 5 5 4 4 3 3 2 2 2 3 4 4 4 5 7 8 8 9 10 12 13 14 14 15 17 18 18 17 16 17 18 18 19 19 19 21 23 25 26 27 29 30 31 31 31 30 28 28 27 26 25 24 23 24 22 20 18 16 15 16 18 18 18 19 19 19 20 20 21 24 27 27 26 26 26 26 26 25
13 12 10 9 7 7 7 7 5 4 4 4 4 2 2 4 4 3 3 4 6 8 7 7 9 11 12 15 16 17 18 19 19 19 18 17 18 19 19 20 21 21 23 25 26 26 27 29 30 31 30 28 27 26 25 23 22 21 20 20 19 18 15 14 13 13 15 16 16 17 19 19 19 20 22 25 27 27 25 25 26 25 23 23 23
12 11 9 8 8 7 7 7 7 7 6 4 2 3 3 3 2 3 4 5 6 7 6 7 10 12 13 16 17 18 19 19 19 19 19 20 21 22 22 22 23 25 26 27 27 28 28 29 29 28 27 25 24 23 22 20 18 17 16 15 16 15 14 13 13 14 14 15 15 17 18 19 21 23 24 25 25 22 19 20 21 19 17 17 18
12 11 11 10 10 9 10 11 10 8 5 3 2 2 3 3 4 4 4 5 6 7 8 10 11 13 14 16 17 18 18 18 19 20 22 23 24 24 24 26 27 28 29 29 28 29 29 29 28 26 25 24 23 21 20 19 17 15 15 14 15 15 14 14 15 15 15 15 16 18 20 20 20 21 22 22 22 19 17 18 18 18 17 16 17
14 15 14 13 12 11 10 10 8 5 3 2 2 3 4 4 5 4 4 6 8 9 10 11 11 12 14 15 16 17 18 19 21 22 23 24 25 26 27 28 28 29 30 29 28 28 29 29 27 25 22 21 19 17 17 17 17 16 16 16 15 14 14 14 15 15 16 17 17 19 21 21 19 19 21 21 21 21 20 19 19 19 18 17 17
16 15 14 12 11 10 9 7 5 4 3 3 3 4 5 5 5 4 5 7 9 10 10 10 11 12 14 14 15 16 19 21 23 23 23 23 24 26 27 28 28 28 27 26 26 27 27 25 23 20 17 17 16 15 15 15 14 14 14 15 14 14 15 15 16 17 17 18 18 19 20 20 20 20 21 21 21 22 22 21 21 21 20 19 19
15 14 13 12 11 9 7 6 5 5 4 4 4 4 5 5 5 5 6 9 11 12 11 11 13 15 14 14 15 16 19 22 23 23 23 23 24 25 26 26 27 26 24 23 24 25 23 20 18 17 16 16 16 15 15 15 14 14 14 14 13 13 13 14 15 17 17 17 18 19 20 20 21 21 21 21 21 22 21 21 21 21 20 19 20
15 13 12 10 8 6 6 7 6 5 4 4 4 4 5 6 5 6 8 10 12 13 13 12 14 15 14 15 17 18 19 21 21 22 22 24 26 26 26 26 24 22 21 22 22 22 19 17 16 16 16 16 16 15 15 15 15 15 16 15 14 13 13 13 13 15 17 18 19 20 20 21 22 22 22 23 22 22 21 20 19 20 20 19 19
14 12 10 8 7 7 7 7 5 4 4 4 4 4 6 8 8 8 9 9 11 12 11 12 14 14 13 15 18 20 20 21 21 21 23 25 25 26 26 24 22 21 21 21 19 18 17 16 15 15 15 16 16 16 15 15 15 15 15 15 15 15 14 15 16 19 20 20 19 20 21 21 22 23 23 23 22 22 21 19 17 18 19 19 18
11 10 8 7 7 7 7 5 4 4 3 4 4 5 7 9 10 11 10 10 10 11 10 12 14 13 14 16 18 18 20 20 19 21 23 25 25 25 25 24 22 21 21 20 18 17 17 16 15 15 15 15 15 16 15 15 14 15 15 15 16 16 16 18 20 21 20 19 19 21 22 22 22 23 22 22 21 20 19 18 17 17 17 17 18
9 8 7 7 8 7 5 4 4 4 4 5 5 6 8 10 12 12 13 13 13 12 13 15 15 16 17 17 17 18 19 19 19 20 24 25 25 25 25 24 21 20 19 19 19 19 18 16 15 14 13 13 13 14 15 15 15 15 16 16 16 17 19 21 21 20 20 20 21 21 21 21 21 21 21 20 19 18 17 17 16 15 15 15 17
8 8 8 8 7 6 5 5 5 5 5 5 5 8 11 12 12 12 12 12 12 13 15 17 18 18 17 17 18 19 20 19 19 20 23 25 26 26 25 23 22 21 20 21 22 21 18 17 15 14 14 14 13 13 13 15 15 15 15 16 16 17 19 21 22 22 21 21 21 20 20 19 19 19 20 21 20 18 17 17 16 15 15 16 17
9 9 8 8 7 6 6 6 7 6 6 6 7 10 12 12 11 10 10 10 11 12 15 18 20 19 17 17 19 21 20 19 19 20 22 24 25 25 24 22 23 23 22 22 22 21 19 18 17 15 16 17 16 15 15 16 17 17 17 17 18 18 19 21 23 23 21 21 21 21 21 21 20 19 20 22 21 19 18 19 18 17 17 18 18
9 9 9 8 6 5 5 6 6 6 6 7 9 11 11 11 9 9 9 10 11 13 16 19 20 21 20 21 23 23 21 20 20 21 23 24 24 24 23 21 21 22 21 22 23 22 21 21 20 18 18 18 19 20 20 19 18 19 20 21 22 23 23 23 23 23 23 23 24 23 23 22 22 21 20 20 20 20 19 19 18 18 19 18 17
10 9 8 6 4 4 4 5 5 5 6 9 10 11 10 9 8 9 10 10 11 14 17 19 19 20 21 24 25 25 23 21 21 23 25 25 25 26 25 23 23 22 21 23 23 23 23 24 23 21 20 19 20 20 20 19 20 22 23 24 25 26 25 24 24 24 24 25 26 25 25 24 24 23 22 20 20 20 20 20 20 20 20 18 16
10 9 6 3 2 1 2 4 5 6 8 9 9 9 9 8 8 9 10 11 13 15 18 19 19 19 20 23 26 26 25 23 24 25 25 26 26 26 25 25 25 24 23 23 23 22 22 23 24 23 23 22 21 20 19 20 22 24 24 25 26 26 25 25 25 25 24 25 26 26 26 26 25 24 22 21 21 20 20 20 20 20 19 18 15
9 7 3 1 1 3 3 3 5 7 8 8 8 8 8 8 9 10 11 12 13 16 18 19 19 18 19 21 24 26 24 23 23 23 23 24 25 26 25 25 25 25 24 23 23 22 21 22 24 24 24 25 24 22 22 23 25 25 25 24 25 25 25 24 24 24 24 24 25 25 25 25 24 22 21 21 21 20 20 21 21 21 20 18 16
6 3 1 3 4 4 3 4 5 6 7 7 8 8 7 8 10 10 11 12 14 16 18 18 18 18 18 20 23 24 23 22 22 22 22 23 24 25 25 25 25 25 24 24 24 23 21 22 24 24 24 24 25 24 23 25 26 25 25 24 24 24 24 23 24 24 24 24 24 24 24 24 23 22 22 22 21 21 20 21 21 20 18 17 16
3 0 3 5 5 3 3 4 5 5 5 7 8 7 7 9 11 11 11 12 14 16 18 18 19 19 19 20 23 23 22 22 22 22 22 23 24 24 25 24 24 24 24 23 23 24 23 23 25 24 24 24 24 23 23 25 25 25 24 24 23 23 23 24 24 25 25 26 25 25 25 26 25 23 23 22 21 21 20 19 18 18 17 15 15
1 2 5 6 5 3 2 3 3 3 5 7 7 6 8 10 11 11 11 13 14 16 18 18 19 20 20 21 23 23 23 23 23 23 23 23 24 24 24 24 24 23 22 22 23 23 24 24 24 24 24 24 24 23 23 24 24 23 23 22 22 23 24 25 25 26 27 27 27 26 26 25 24 23 22 21 20 19 18 16 15 16 15 14 14
2 4 6 6 5 3 2 2 1 2 5 7 6 6 8 10 11 11 12 13 15 16 17 18 19 20 21 22 24 24 23 23 23 23 23 23 23 24 24 24 23 22 22 23 24 24 25 24 24 23 23 24 24 25 25 25 23 22 21 22 23 24 25 25 25 26 27 26 26 25 25 25 24 22 22 20 18 17 15 14 14 15 15 14 12
3 5 6 6 5 3 2 1 0 2 5 6 5 6 8 10 10 11 12 13 15 16 17 18 19 19 21 22 23 22 23 23 23 23 23 23 23 23 23 23 23 23 22 23 24 25 25 24 23 23 24 25 25 26 26 26 24 22 21 22 23 24 26 26 26 26 26 25 24 23 23 23 23 22 20 19 16 14 13 12 12 11 9 8 7
4 5 6 6 5 3 2 1 0 2 5 5 5 6 8 9 10 11 12 12 14 16 17 18 19 20 21 22 22 22 23 24 23 23 23 23 22 23 22 22 23 24 24 24 25 26 24 23 23 24 25 25 26 26 26 26 25 23 22 23 23 25 27 28 27 26 25 24 22 21 21 21 21 20 19 17 13 11 10 9 6 1 4 5 4
4 4 5 6 5 4 3 2 0 2 5 5 5 7 8 9 10 11 11 12 13 15 16 18 19 20 21 21 21 21 23 23 23 23 23 22 22 22 21 21 23 25 25 26 26 25 24 23 23 24 25 25 26 27 27 26 26 26 26 27 27 28 29 28 26 25 25 23 21 21 20 20 20 19 16 12 9 7 6 4 4 5 7 6 4
3 4 5 6 5 5 3 1 0 3 5 5 6 7 8 9 10 11 11 11 13 15 16 18 20 21 20 20 20 21 22 23 23 22 22 21 21 21 21 22 24 26 26 26 25 24 23 22 23 24 24 25 26 26 27 27 28 29 30 30 30 30 29 26 24 23 22 20 20 20 20 18 17 15 10 6 3 2 1 2 4 5 6 6 8
2 4 5 5 5 5 3 1 1 3 5 6 7 7 7 8 10 11 11 11 13 15 16 17 20 21 20 19 20 21 22 23 22 22 21 21 21 22 21 22 24 25 25 25 24 23 22 22 23 24 25 25 25 26 26 28 29 31 32 32 31 29 27 24 22 21 20 19 20 21 19 18 15 11 6 5 4 3 4 4 4 6 9 11 14
2 4 4 4 5 5 3 1 2 4 5 6 7 7 7 7 9 11 10 11 14 15 16 17 20 20 18 18 20 22 22 22 21 21 21 21 22 23 23 24 24 24 24 24 23 22 22 22 23 24 26 27 26 27 28 29 31 31 31 31 30 28 26 24 22 21 21 21 21 21 21 21 19 16 13 11 9 7 7 8 9 12 16 18 19
3 4 3 4 5 4 2 1 2 4 6 7 7 7 6 7 9 10 10 11 14 15 15 17 19 18 17 18 19 21 21 21 20 20 21 22 23 24 25 25 25 24 24 23 22 22 22 22 23 25 27 27 27 28 30 31 31 31 31 30 29 27 26 25 24 23 24 23 23 23 24 24 23 21 19 18 16 16 16 16 17 20 22 23 23
Wind_Direction
162 162 160 160 161 163 164 164 166 168 165 165 161 141 130 141 160 171 175 180 190 205 206 185 156 168 204 248 279 289 292 293 294 294 294 291 291 295 301 305 305 305 307 308 312 314 310 305 302 299 295 296 302 310 318 327 331 331 330 322 307 299 297 288 274 277 287 290 294 297 302 307 305 305 314 317 316 314 305 292 285 282 282 283 283
165 169 169 168 169 170 173 175 172 166 158 156 152 146 145 151 163 173 178 192 211 184 174 177 175 212 263 283 287 290 291 294 299 302 302 300 297 299 303 305 303 302 302 304 306 308 306 299 291 286 285 286 291 298 306 317 325 328 327 321 310 304 302 296 286 281 287 289 288 289 293 299 299 297 302 306 309 312 311 304 298 288 283 283 283
170 175 177 177 178 178 181 179 173 167 160 159 156 147 146 152 164 181 191 195 191 176 186 218 252 276 288 293 293 296 299 303 307 309 310 308 305 307 310 310 310 310 309 309 311 311 310 306 295 284 279 278 281 286 295 306 315 321 321 314 307 304 305 305 297 285 282 285 285 284 285 288 291 292 294 296 298 301 303 301 300 295 290 286 284
179 182 185 188 188 187 186 181 179 179 177 178 174 159 154 160 168 179 184 184 185 191 220 258 280 293 304 311 313 318 318 316 315 315 314 313 311 312 314 315 315 315 313 313 314 313 312 310 304 294 287 281 279 280 288 300 305 308 311 308 303 303 306 308 305 295 286 283 282 280 279 280 283 285 287 290 289 290 291 292 292 291 288 285 284
187 190 193 195 197 197 193 188 188 189 186 185 184 176 170 168 170 178 188 200 212 214 240 9 38 14 359 342 333 334 331 326 322 319 314 313 312 312 313 315 315 313 312 311 311 311 309 304 302 301 296 288 281 279 285 295 298 298 302 302 299 301 303 305 307 302 292 284 283 284 282 279 277 276 279 285 288 286 283 282 283 284 285 282 281
195 197 200 203 206 206 201 197 195 193 190 188 183 179 175 171 177 192 196 190 167 104 67 41 4 347 340 335 332 330 327 323 318 316 316 316 315 315 317 318 317 316 314 314 315 316 312 305 298 296 296 292 285 280 283 289 291 293 298 300 298 296 295 299 304 302 295 288 287 288 285 280 277 274 272 280 290 292 288 284 279 278 282 284 281
202 205 208 210 211 210 206 203 200 197 198 197 187 177 174 175 182 179 156 130 104 71 8 335 331 333 334 331 327 325 323 322 322 324 326 326 325 325 325 323 320 319 318 319 320 319 318 314 309 303 298 295 288 281 282 288 290 291 295 297 295 292 292 294 298 297 292 288 285 285 286 284 281 277 273 276 285 290 290 289 286 283 285 287 286
209 213 213 212 212 210 207 206 205 203 204 204 194 185 178 175 171 160 158 174 250 293 310 318 322 324 324 323 324 327 329 330 332 333 332 330 328 326 325 323 321 319 318 317 317 316 315 314 310 307 304 300 294 289 289 291 293 292 293 293 292 291 292 292 292 289 284 282 280 282 285 284 282 281 277 277 281 284 286 289 291 290 288 288 289
214 216 213 210 210 208 207 207 206 206 209 206 197 192 183 176 176 181 208 245 259 271 290 311 321 323 323 327 332 333 334 334 336 335 331 328 325 323 322 321 319 317 315 313 312 311 312 309 306 304 305 305 303 299 297 296 295 294 293 293 293 291 289 287 285 280 276 275 274 277 280 277 276 277 274 271 274 278 284 288 287 287 290 291 288
214 213 210 210 211 209 208 211 210 210 212 209 203 202 195 188 194 211 231 224 222 256 306 326 330 331 333 338 340 338 338 337 335 332 326 323 322 321 320 317 316 314 311 309 308 308 309 308 307 306 306 306 304 301 300 298 296 294 293 294 293 290 287 283 278 274 272 272 273 274 272 269 268 268 266 268 273 276 279 283 284 287 291 293 289
211 210 211 214 216 213 211 212 213 213 216 213 208 205 197 199 214 215 207 203 212 318 342 340 341 344 347 349 347 343 343 342 338 333 327 324 322 320 320 320 320 320 318 314 310 308 307 307 306 306 305 304 303 302 300 299 297 295 294 294 293 290 288 285 281 277 274 272 273 270 265 262 263 262 261 264 267 268 269 273 278 281 284 287 290
210 213 217 220 220 218 220 220 217 217 218 213 208 204 201 208 214 207 208 214 341 354 349 348 355 360 357 353 348 345 346 344 340 333 326 322 320 318 318 320 322 324 324 320 316 314 314 313 312 309 308 308 308 306 304 302 300 298 297 296 294 292 291 287 284 281 277 274 273 268 264 264 265 264 264 264 264 265 268 271 271 270 272 274 277
213 217 221 223 223 226 230 228 223 225 222 213 210 214 221 231 226 220 223 281 4 353 352 358 6 4 355 351 348 347 346 341 332 325 319 318 317 315 315 317 320 321 321 319 318 319 321 321 320 318 317 318 316 314 312 309 306 304 303 301 299 298 296 293 287 283 279 277 275 271 269 267 267 268 269 269 270 271 273 275 276 276 276 274 274
215 218 218 215 220 230 235 230 228 228 219 202 189 223 336 310 274 253 249 19 356 355 360 0 360 354 347 346 342 337 335 328 320 316 315 316 316 316 317 318 319 319 318 316 316 319 323 327 328 327 327 325 322 320 318 313 309 308 306 304 302 301 301 299 295 291 287 282 276 275 275 271 271 274 272 268 269 269 269 272 276 280 283 281 279
211 207 203 209 219 223 223 222 218 212 200 174 157 22 338 307 260 255 323 355 354 360 349 327 330 332 330 330 328 322 318 314 312 312 313 314 315 317 318 319 319 319 318 315 314 316 323 327 328 328 327 324 321 320 317 313 309 307 305 303 302 301 300 297 295 297 296 289 282 282 285 284 283 281 278 278 278 275 276 278 279 280 282 280 279
196 199 210 219 221 218 214 216 210 195 172 150 235 307 310 275 241 269 329 350 346 324 300 303 310 313 313 313 310 308 308 310 312 313 314 315 316 317 317 316 317 318 317 315 312 312 315 317 318 320 320 319 319 317 315 312 307 304 303 301 300 298 295 292 291 293 293 289 285 284 285 286 284 281 281 283 284 284 286 286 284 283 279 275 275
194 207 214 202 176 175 186 205 208 196 200 246 266 282 274 235 236 281 312 308 297 290 291 298 304 307 306 302 301 306 312 316 316 316 319 322 321 319 317 315 314 313 313 312 310 308 308 308 309 311 313 315 316 315 313 309 304 301 300 299 299 296 293 292 293 292 290 286 284 283 281 281 279 277 277 279 280 286 287 284 283 281 275 268 266
184 206 207 165 158 188 200 205 224 246 260 262 262 259 225 216 246 279 273 279 288 292 298 302 303 304 303 302 308 315 319 320 318 318 321 322 318 315 314 312 310 309 308 307 305 304 303 302 303 304 305 307 310 310 309 306 301 298 296 296 295 291 292 296 298 296 293 288 284 282 280 280 278 276 277 278 279 282 279 274 277 277 270 265 264
185 213 207 191 199 213 216 219 241 259 263 256 239 216 214 233 260 271 279 289 295 300 306 308 308 309 311 318 325 325 321 319 317 316 316 313 310 308 307 305 303 303 304 303 302 301 299 299 300 300 300 302 303 303 304 303 298 294 291 290 286 284 289 295 297 296 294 290 285 282 280 279 278 277 278 279 279 276 270 268 270 268 264 263 263
215 219 207 204 211 221 233 244 250 243 235 223 205 209 233 256 268 280 290 297 302 310 318 322 328 334 336 334 329 322 318 317 315 313 313 311 307 304 301 300 299 300 302 302 302 301 301 301 302 302 301 301 301 301 300 298 296 293 288 283 279 282 289 293 293 293 292 288 284 281 279 277 275 273 275 277 276 273 270 269 267 261 259 260 257
220 214 211 220 224 224 225 215 204 210 210 202 209 230 256 272 280 289 298 306 318 332 340 343 346 348 342 332 324 320 320 319 317 318 319 319 317 309 302 299 300 302 304 303 303 303 303 304 305 305 305 303 301 299 297 294 292 290 285 280 277 282 289 292 292 292 290 285 281 278 276 275 272 270 272 274 274 275 275 274 269 262 258 256 254
189 196 204 202 178 167 169 168 177 196 198 204 233 261 274 277 285 307 331 337 341 345 350 353 350 340 331 327 325 324 324 323 324 326 326 326 325 319 310 305 305 306 306 305 305 306 306 307 307 307 306 304 301 298 296 294 291 286 282 280 280 284 289 291 291 293 291 286 281 275 273 271 270 272 274 272 273 275 276 275 272 266 262 259 256
141 157 161 152 147 150 154 162 183 199 205 228 252 259 241 200 34 4 344 341 346 352 356 353 343 334 331 330 328 330 332 333 333 332 330 327 323 319 314 312 314 315 313 310 311 311 310 308 307 306 306 304 302 301 299 297 294 288 283 280 282 286 290 289 286 286 288 286 282 276 272 268 267 271 271 269 272 278 279 278 275 271 268 265 260
132 138 143 147 148 148 159 185 208 215 222 229 208 168 129 37 3 341 334 343 349 350 351 349 345 341 338 336 338 341 341 339 336 335 333 327 324 322 320 320 321 322 320 317 315 313 310 308 307 307 308 309 309 309 307 303 299 293 288 285 285 286 286 284 280 279 281 283 281 278 276 273 269 268 270 273 280 284 284 281 279 277 274 271 268
137 141 145 151 159 174 195 211 212 196 179 169 155 121 30 2 350 340 343 349 348 347 349 350 348 342 337 338 341 344 344 341 339 339 338 333 330 329 327 325 325 325 324 320 317 313 309 308 310 312 314 316 316 316 313 308 305 301 295 289 286 285 282 278 278 278 279 281 281 281 281 279 275 274 277 282 284 284 282 280 280 280 277 274 271
144 149 154 162 172 182 183 171 159 151 144 135 96 33 18 16 20 11 358 353 351 350 348 345 342 339 337 338 340 342 346 348 347 345 343 338 335 333 331 330 331 331 328 325 322 318 314 314 316 319 321 321 321 319 318 316 313 310 303 296 292 289 285 279 277 276 277 279 280 279 278 279 281 283 284 285 282 279 276 277 278 277 273 270 269
143 143 142 142 142 145 145 142 141 139 128 99 48 37 49 46 29 11 2 5 2 355 348 345 343 341 338 339 342 346 352 355 353 350 346 341 338 337 336 336 335 334 332 329 326 323 320 321 324 325 327 327 326 325 325 323 320 317 314 310 304 296 290 286 282 279 277 277 278 279 281 284 286 286 286 284 280 275 273 272 271 271 270 266 263
136 133 132 131 131 133 136 136 137 134 120 103 86 68 54 38 25 18 20 14 3 355 352 351 349 347 345 347 350 352 354 357 355 350 346 343 342 340 338 337 336 335 334 331 328 327 327 328 329 329 329 329 327 324 325 324 321 318 316 315 310 303 301 298 291 284 281 280 280 283 286 287 286 285 284 282 279 280 279 273 266 267 268 263 257
134 133 133 132 130 130 132 134 139 133 118 107 80 55 41 36 32 26 20 11 3 1 2 3 1 360 359 1 0 357 355 353 350 346 343 343 343 340 338 337 337 336 335 332 330 331 332 330 329 328 327 326 324 322 322 322 320 316 316 317 315 313 311 306 298 293 291 287 283 283 285 286 286 288 287 283 280 282 282 275 268 266 266 260 256
135 134 133 130 129 130 132 133 131 118 98 71 44 32 28 26 22 14 12 11 8 9 13 13 7 3 4 6 5 0 355 348 343 341 340 341 342 340 338 338 338 338 338 336 335 335 333 329 328 328 326 325 325 325 325 324 322 318 317 316 313 310 308 304 301 300 298 295 290 288 288 288 288 289 288 284 282 282 280 275 271 267 261 254 254
134 134 132 129 128 124 120 120 114 95 67 38 23 14 7 8 10 14 16 14 9 10 15 11 1 358 1 1 357 353 350 345 341 341 341 341 342 342 341 342 344 345 345 342 337 335 334 331 329 330 328 325 325 326 326 325 322 319 318 316 313 310 307 304 304 304 301 298 294 290 289 289 288 287 286 285 285 284 281 278 273 269 264 257 254
134 134 129 123 119 112 111 110 91 59 41 33 27 13 6 8 12 17 20 15 8 9 10 1 356 356 357 355 352 349 347 346 344 343 343 343 343 344 346 349 351 354 354 348 339 333 333 332 329 329 329 327 326 325 324 322 320 318 316 313 311 310 307 305 306 306 303 299 295 293 292 290 288 286 286 285 286 287 285 282 275 271 270 265 260
130 130 121 116 117 113 106 91 65 51 47 39 28 17 11 7 3 3 7 7 5 5 5 2 360 358 354 352 351 349 348 347 346 346 348 349 348 348 351 354 357 358 357 352 343 335 333 332 330 329 329 326 323 321 320 318 315 312 309 307 304 302 301 304 307 305 302 299 296 295 293 291 289 288 286 284 284 283 282 280 275 270 269 267 264
124 124 119 119 119 110 89 65 54 51 46 36 23 13 7 3 0 3 7 7 5 4 4 4 2 357 352 351 351 350 349 348 348 350 354 356 356 355 355 356 359 358 355 351 345 339 334 332 331 330 327 323 320 318 315 312 309 306 303 301 299 298 302 306 306 302 300 298 296 293 291 290 291 292 290 287 284 279 275 275 273 267 264 265 265
127 125 122 117 106 87 67 57 51 45 39 32 16 5 4 4 8 14 14 12 11 8 3 1 360 356 355 354 353 352 352 351 351 355 359 1 0 359 358 358 357 355 351 349 347 342 336 333 331 328 324 322 318 314 310 308 306 303 300 300 299 298 301 303 301 298 297 296 292 289 289 290 292 295 296 292 285 277 274 274 273 268 265 266 266
134 127 119 108 89 74 66 56 48 44 40 26 10 5 7 9 12 16 15 13 13 9 3 360 358 357 359 360 357 354 354 353 354 359 4 4 3 2 360 355 351 349 347 346 346 343 338 335 333 329 325 323 320 315 311 308 305 303 302 300 298 296 297 298 297 296 296 293 289 287 288 288 289 295 299 294 287 283 282 280 278 273 269 268 269
136 128 119 108 94 86 76 61 56 52 35 15 7 5 6 7 9 13 12 10 8 7 4 2 359 358 360 2 1 357 354 354 357 3 6 5 3 4 1 354 347 345 343 342 344 343 338 336 335 332 327 324 323 321 318 314 311 309 308 305 301 299 297 297 295 294 293 293 290 288 287 287 286 289 291 289 288 291 292 289 285 280 274 270 269
134 131 127 120 114 103 76 57 57 47 21 9 6 4 1 3 8 12 10 7 7 7 6 5 4 3 1 1 360 357 355 356 0 4 5 3 2 2 0 355 350 345 341 340 341 340 337 336 336 334 330 326 324 323 321 318 315 312 310 307 304 302 300 298 297 296 295 295 294 292 291 290 288 287 284 281 283 290 293 292 290 287 283 276 269
139 140 140 140 135 92 42 33 29 18 8 5 3 1 0 5 11 11 6 3 6 7 6 6 6 5 3 1 359 357 357 360 1 360 359 360 0 360 358 355 350 346 342 340 339 337 335 334 334 334 333 330 327 324 323 324 322 318 315 313 311 308 306 304 302 299 295 293 293 293 292 290 288 286 283 281 284 288 290 289 288 286 285 280 270
148 146 142 115 21 2 2 6 4 3 5 7 5 4 7 11 11 8 4 2 4 6 7 7 6 4 2 1 360 358 357 359 359 356 355 356 357 357 357 354 350 347 344 340 338 336 333 332 333 333 332 332 332 330 328 329 329 326 323 321 319 315 312 310 308 305 301 297 295 295 295 294 293 291 288 287 288 287 284 284 283 281 282 280 273
154 148 70 357 353 353 357 1 360 1 6 8 7 8 12 12 9 6 2 2 3 4 4 5 4 2 360 359 358 358 358 359 359 358 357 356 355 356 356 354 351 350 347 342 340 339 336 335 336 335 332 332 334 333 331 332 332 331 329 326 324 321 318 316 316 315 312 309 306 304 303 304 304 301 297 295 294 289 283 280 279 278 280 281 276
155 105 346 344 345 349 1 6 8 12 13 9 8 12 14 10 6 4 2 3 4 3 2 1 0 360 358 356 356 358 1 2 1 360 359 358 357 357 356 355 354 354 351 348 347 345 341 340 340 337 335 335 335 334 334 335 335 334 332 329 327 325 324 323 323 321 318 314 311 309 308 308 307 304 299 297 294 289 284 281 280 282 284 281 273
97 2 350 346 344 345 356 3 10 22 19 13 12 14 13 8 4 2 4 5 4 3 1 358 357 357 357 355 356 360 3 3 2 1 360 358 357 357 358 357 357 358 358 358 355 350 346 345 344 341 340 343 343 341 339 339 339 339 337 333 332 332 330 328 326 324 321 318 315 312 310 308 307 304 301 297 294 292 289 287 286 287 286 279 270
33 360 350 346 343 336 339 357 25 35 23 17 13 13 11 6 1 2 5 6 5 4 1 358 356 356 355 355 358 1 3 2 1 1 359 358 358 359 360 0 1 2 4 3 359 352 347 348 349 348 349 352 352 350 347 346 349 349 345 340 338 336 334 332 328 325 322 319 315 313 311 309 306 304 302 301 299 297 293 289 284 279 273 265 254
357 344 340 341 341 325 301 293 47 32 21 15 11 10 8 3 1 4 7 6 5 3 0 358 358 356 355 356 359 1 2 1 1 1 360 360 1 2 3 4 5 5 4 2 357 352 351 355 357 357 357 357 357 355 354 354 356 356 352 347 342 338 337 337 333 328 327 322 314 310 309 308 307 306 304 303 304 302 300 296 289 276 256 232 209
335 331 329 332 334 320 291 258 244 20 18 15 10 6 3 1 3 5 5 4 4 1 359 359 359 357 356 357 359 1 2 2 1 1 1 2 4 5 7 9 10 8 5 1 356 355 359 5 6 3 2 1 0 360 359 359 359 359 357 354 349 345 345 343 338 335 335 329 320 315 312 308 307 307 306 306 308 309 309 313 318 352 117 123 121
337 342 335 330 328 314 291 261 264 15 17 16 7 360 359 1 4 4 1 360 0 359 358 360 359 357 357 359 1 2 3 3 2 3 4 5 8 10 12 13 13 10 5 0 359 2 7 11 10 7 6 5 4 3 2 2 3 3 2 0 357 354 351 347 342 341 341 337 334 333 326 316 310 309 308 309 312 311 314 338 27 68 75 68 66
350 356 342 332 327 318 303 283 19 26 23 17 3 355 358 3 5 1 356 355 356 357 358 359 358 357 358 2 3 4 3 3 3 6 7 9 12 14 15 15 12 7 1 0 4 9 11 11 11 11 10 8 8 7 6 6 7 8 6 5 2 358 354 350 347 347 347 348 351 351 342 331 324 320 314 312 312 303 334 56 60 64 67 76 106
12 357 342 331 329 326 322 337 59 32 25 17 3 356 0 5 4 359 353 351 355 357 357 357 356 357 360 3 5 4 4 4 6 9 12 13 15 16 15 12 7 3 1 4 8 11 12 11 12 13 13 13 14 13 11 10 11 10 9 7 3 360 358 357 358 359 2 6 9 7 4 4 7 14 35 74 88 94 98 86 74 79 91 104 116
348 346 340 333 332 334 337 43 56 35 28 18 5 0 2 3 359 356 354 354 356 358 356 355 356 358 2 5 5 5 4 6 9 13 15 17 18 16 12 8 4 3 5 9 11 11 12 13 14 15 16 18 19 17 15 14 14 12 11 8 6 5 8 10 12 16 21 24 23 23 27 33 40 50 66 79 81 83 90 94 97 102 105 108 109
317 326 332 337 343 349 2 34 43 42 35 18 7 3 2 358 357 357 357 359 0 359 355 354 356 360 5 7 6 5 6 8 13 17 20 21 20 15 10 8 8 10 12 13 14 13 13 15 18 19 20 21 21 20 18 17 16 15 14 12 11 14 18 22 25 31 36 36 36 39 45 50 53 58 66 75 79 82 86 90 96 101 103 105 105
Height
804 806 806 807 808 808 809 810 810 811 811 811 812 812 812 812 813 814 814 815 815 815 815 815 815 816 815 815 815 815 815 814 814 814 813 813 813 813 813 813 812 812 811 811 811 811 810 809 809 808 808 808 807 807 807 806 806 805 805 804 803 803 802 801 800 797 796 796 795 794 794 793 792 791 791 790 789 789 788 787 787 786 786 786 785
804 805 806 807 808 808 808 809 809 810 810 811 811 811 812 812 813 813 814 814 814 814 815 815 815 815 815 815 814 814 814 813 813 813 812 812 812 812 812 811 811 810 810 810 809 809 809 808 808 807 807 806 806 806 805 805 805 804 804 803 802 801 801 800 799 797 795 794 794 792 792 792 791 790 789 788 788 787 786 786 785 784 784 784 783
804 805 806 806 807 807 808 808 809 809 810 810 811 811 812 812 813 813 813 814 814 814 814 814 814 814 814 814 813 813 813 812 812 812 811 811 811 810 810 810 809 809 808 808 808 807 807 806 806 806 805 805 805 804 804 804 804 803 802 802 801 800 799 799 798 796 794 792 792 791 790 790 789 788 787 787 786 785 785 784 783 783 782 782 781
804 804 805 806 806 807 807 808 809 809 810 810 811 811 812 812 812 813 813 813 813 813 813 813 813 813 813 813 813 812 812 812 811 811 810 810 809 809 809 808 808 807 807 807 806 806 805 805 804 804 803 803 803 803 802 802 802 801 801 800 799 799 798 797 796 795 793 791 790 789 788 787 786 786 785 784 784 783 783 782 781 781 780 780 779
803 804 805 806 806 807 808 809 809 810 810 811 811 811 812 812 813 813 813 813 813 813 813 813 813 813 812 812 812 812 811 811 810 809 809 808 808 808 807 807 806 806 805 805 805 804 803 803 802 802 802 801 801 801 800 800 800 799 799 798 798 797 796 795 794 793 792 790 788 787 787 785 784 783 783 782 781 781 780 779 779 779 778 778 777
803 804 805 806 806 808 808 809 809 810 811 811 811 812 812 813 813 813 814 814 813 813 813 813 813 812 812 811 811 811 810 810 809 808 808 807 807 806 806 805 805 804 804 803 803 802 802 801 801 800 800 799 799 799 798 798 798 797 797 796 796 795 794 793 792 791 790 788 787 785 784 783 782 781 781 780 779 778 777 777 776 776 775 775 775
802 803 805 806 807 808 808 809 810 811 811 812 812 813 813 813 814 814 814 813 813 813 813 813 812 812 811 811 810 810 809 809 808 807 807 806 806 805 804 804 804 803 803 802 801 801 800 800 799 798 798 797 797 797 796 796 795 795 794 794 793 792 792 791 790 789 788 786 785 783 782 781 781 780 779 779 778 777 776 775 774 773 773 772 772
802 803 805 805 806 807 808 810 811 812 812 813 813 813 814 814 813 813 813 813 813 813 812 812 812 811 811 810 810 809 808 808 807 807 806 805 805 804 803 803 802 802 801 800 800 799 799 798 797 797 796 795 795 795 794 793 793 792 792 791 791 790 789 788 787 786 785 784 782 781 780 779 779 778 777 777 776 775 775 774 773 772 771 770 770
802 804 805 806 807 808 810 811 812 813 813 813 814 814 814 814 813 813 813 813 812 812 812 811 811 811 810 810 809 808 808 807 806 806 805 804 804 803 802 802 801 800 800 799 798 798 797 797 796 795 794 794 793 793 792 791 790 790 789 789 788 787 786 785 784 783 782 781 780 779 778 777 776 776 775 775 774 773 773 772 771 770 770 768 767
803 804 805 807 808 809 811 812 812 813 813 814 814 814 814 814 813 813 813 813 812 812 811 811 810 810 810 809 808 807 807 806 805 805 804 803 803 802 801 800 800 799 798 797 796 796 795 795 794 793 793 792 791 790 789 789 788 787 787 786 785 784 783 782 781 780 779 778 777 776 775 775 774 774 773 772 772 772 771 771 770 769 768 767 765
803 805 806 808 809 810 811 812 812 813 813 813 814 814 814 814 813 813 812 812 812 811 811 810 810 809 809 808 808 807 806 805 805 804 803 803 802 801 800 799 798 798 797 796 795 794 793 793 792 792 791 790 789 788 787 787 786 785 784 783 782 781 780 779 778 777 776 774 774 774 773 772 771 771 770 770 769 769 768 768 768 767 767 766 764
804 805 807 808 809 810 811 811 812 812 812 813 813 813 813 813 812 812 812 811 811 810 810 810 809 808 808 807 807 806 805 805 804 803 802 801 801 800 799 798 797 796 795 794 793 792 791 791 790 790 789 788 788 787 786 785 784 783 782 780 779 778 777 777 776 774 773 772 771 770 770 769 768 768 767 767 767 766 766 766 766 765 765 764 764
803 805 806 808 809 810 811 812 812 813 813 813 813 814 814 813 813 812 811 811 810 810 809 809 808 808 807 806 806 805 804 804 803 802 801 800 800 799 798 797 796 795 794 793 792 791 790 789 788 788 787 786 786 785 783 782 781 780 779 777 776 775 774 774 773 772 770 769 768 767 767 767 766 765 765 765 765 765 765 765 764 764 763 762 762
802 804 806 807 807 808 809 810 811 812 812 812 813 814 815 815 814 813 811 811 810 809 809 808 808 807 806 806 805 804 803 802 801 801 800 799 798 797 797 796 795 794 793 791 791 790 789 788 787 786 785 784 783 782 781 780 778 777 776 775 773 772 771 770 769 768 767 766 765 764 764 764 764 763 764 763 763 763 763 762 762 762 761 760 760
802 803 804 804 803 803 805 806 807 809 811 811 812 812 813 813 813 813 811 810 809 808 808 808 807 806 806 805 804 803 802 801 800 799 799 798 797 796 795 795 793 792 791 790 789 788 788 787 785 784 783 782 781 780 779 778 776 774 773 772 770 769 768 767 766 765 765 764 763 762 762 762 761 761 761 761 761 761 760 760 760 759 759 758 757
800 801 801 801 802 803 805 806 807 808 810 812 813 812 811 812 813 812 811 809 809 808 808 807 806 805 804 803 802 801 800 800 799 798 798 797 796 795 794 793 792 791 790 789 788 787 786 785 783 782 781 780 779 778 777 775 774 772 770 769 767 766 764 763 763 763 762 761 761 760 760 759 759 759 759 759 759 758 758 757 757 757 756 755 754
799 801 802 804 805 808 809 810 811 810 810 811 812 811 810 811 812 811 810 809 808 808 807 806 805 804 803 802 801 800 799 799 798 798 797 796 795 794 793 792 790 789 788 787 786 785 784 782 781 780 779 777 776 775 774 773 771 769 768 766 764 762 760 759 759 759 759 758 758 758 757 757 756 756 756 756 756 756 756 755 754 754 753 752 751
801 803 805 805 805 806 807 808 810 810 809 810 810 809 809 810 811 810 809 809 808 807 806 805 804 803 802 801 800 799 799 798 798 797 796 795 794 792 791 790 788 787 786 785 783 782 781 780 779 778 776 775 774 773 771 770 768 766 764 763 761 759 757 756 756 755 755 755 754 754 753 753 753 752 752 753 753 754 753 752 752 752 751 749 748
802 802 803 803 802 802 804 805 807 808 808 808 808 809 809 809 809 809 809 808 807 806 805 804 803 802 801 800 800 799 798 798 797 796 795 794 792 791 790 788 786 785 784 782 781 780 778 777 776 775 774 773 771 770 768 767 765 763 761 760 758 755 754 754 753 752 751 751 750 749 749 749 749 748 748 748 749 750 750 749 749 749 748 746 746
800 800 802 802 802 803 804 804 805 806 807 807 808 808 809 809 809 808 808 807 806 805 804 803 802 801 801 800 800 799 798 797 796 795 793 792 791 789 788 786 785 783 782 780 779 777 776 774 773 772 771 769 768 766 764 763 762 760 758 757 754 752 751 751 750 750 749 747 746 745 744 744 744 744 744 744 744 744 745 745 746 746 744 743 742
797 798 800 801 801 802 803 803 805 806 807 807 808 808 808 808 808 807 806 806 805 804 803 802 802 801 800 800 799 798 797 796 794 793 792 790 789 788 786 785 783 781 780 778 777 775 773 771 769 768 767 765 763 762 760 758 758 756 754 752 751 750 749 747 746 746 746 744 742 741 740 739 740 739 739 739 739 739 740 740 740 741 740 739 738
795 797 799 800 801 802 803 804 805 806 807 807 807 808 807 807 806 806 806 805 804 804 803 802 802 801 800 800 799 797 796 795 793 792 790 789 788 786 784 783 781 780 778 776 775 772 770 768 766 765 763 761 759 757 755 753 752 751 749 748 747 747 746 744 743 742 742 740 738 737 736 735 735 735 735 735 734 734 735 735 735 735 735 735 734
796 797 799 800 801 802 803 805 805 806 807 807 807 806 806 806 806 805 805 804 804 803 803 802 801 801 800 799 798 796 795 793 792 790 789 787 786 784 783 781 780 778 776 774 772 770 767 765 763 761 759 757 755 753 750 748 746 744 743 743 743 743 742 741 740 739 738 737 735 733 732 732 731 731 731 731 730 730 730 730 730 730 729 729 729
797 799 800 801 802 803 804 805 805 806 806 806 806 806 806 806 805 805 804 804 803 803 803 802 801 800 799 798 796 795 793 792 790 789 787 785 784 782 781 779 778 776 774 771 769 767 765 762 759 757 755 753 750 748 745 743 741 740 739 739 739 739 738 737 736 736 735 733 732 730 728 728 727 727 727 727 727 727 726 726 725 725 725 724 724
799 800 801 802 803 804 804 805 805 806 806 806 806 806 806 806 805 805 804 804 804 803 802 801 800 799 798 796 795 793 792 790 789 787 785 783 782 780 779 777 775 774 771 769 767 764 761 759 756 753 750 748 746 743 741 739 737 736 735 735 735 735 735 734 733 732 731 730 729 727 726 725 725 724 724 724 724 723 722 722 721 721 721 720 720
800 802 803 803 804 804 805 805 806 806 807 807 807 806 806 806 805 805 805 804 804 803 802 801 800 798 797 795 794 792 790 789 787 785 783 781 779 778 776 774 772 770 768 765 763 760 757 754 752 749 746 744 742 740 738 736 734 733 732 732 732 732 731 731 730 729 729 728 726 725 723 722 722 721 721 721 720 719 719 718 718 717 717 717 716
801 802 803 804 805 805 805 806 806 807 807 807 807 807 806 806 806 805 804 804 803 802 801 800 799 798 796 794 793 791 789 787 785 783 781 779 777 775 773 771 769 766 764 762 759 756 753 750 748 745 743 741 739 737 735 734 733 731 730 730 730 729 728 728 727 726 726 725 724 722 721 720 719 718 718 717 716 715 715 715 714 714 713 713 713
802 804 804 805 806 806 807 807 807 808 808 808 807 807 807 806 805 805 804 803 802 801 800 799 798 797 795 793 791 789 788 786 784 782 780 777 775 773 771 769 766 764 761 758 755 752 750 747 745 743 741 739 737 735 734 732 731 730 729 728 728 727 726 726 725 724 723 722 721 720 719 717 717 716 715 714 713 712 712 711 711 710 710 710 709
804 805 806 806 807 807 807 808 808 808 808 808 807 807 806 805 805 804 803 802 801 801 800 799 797 796 794 792 791 788 786 785 783 781 779 777 775 772 770 767 765 762 759 756 753 750 748 745 743 742 740 738 737 735 733 732 730 729 728 727 726 725 725 724 723 722 721 720 719 718 717 716 714 713 712 711 709 709 708 708 707 707 706 706 705
805 806 806 807 807 807 807 808 808 808 808 807 807 806 806 805 804 803 803 802 801 800 799 797 796 795 793 792 791 789 787 785 783 781 779 776 774 771 768 766 763 760 757 755 752 750 747 745 743 742 740 738 736 734 733 731 730 729 727 726 725 724 723 722 721 720 719 718 717 716 715 713 712 711 709 708 706 705 705 704 704 703 703 702 701
806 806 807 807 807 807 807 807 807 807 807 807 806 806 805 804 804 803 803 802 801 799 798 797 795 794 793 792 790 789 787 785 782 780 777 775 772 769 766 764 761 759 756 754 751 749 747 745 743 741 740 738 736 734 733 731 730 728 727 725 724 723 721 720 719 718 717 716 715 713 712 711 709 708 706 705 703 702 701 700 700 699 698 698 696
806 806 807 807 807 807 807 807 807 807 807 806 806 805 805 804 804 803 802 801 800 799 798 797 795 794 793 791 790 788 786 784 781 779 776 773 770 767 765 762 760 757 756 753 751 749 747 745 743 741 739 738 736 734 732 731 729 728 726 724 723 721 720 719 718 717 715 714 712 711 709 708 706 705 703 702 700 699 698 697 697 696 694 693 692
806 806 807 806 806 807 807 807 807 807 806 806 806 805 805 804 803 802 801 801 800 799 798 796 795 794 793 792 790 788 786 783 781 778 775 772 769 766 763 761 759 757 755 753 751 749 747 745 743 741 739 737 735 733 732 730 728 727 725 723 721 720 718 717 716 714 713 711 710 708 706 705 703 702 700 699 698 696 695 694 693 692 691 690 689
806 806 806 806 806 807 807 807 807 806 806 806 806 805 805 804 803 802 801 799 798 798 797 796 795 794 792 791 789 787 785 783 780 778 775 772 769 766 763 760 758 756 754 753 751 749 747 745 742 740 738 737 735 733 731 729 727 725 723 721 719 717 715 714 713 711 710 708 707 705 703 702 700 699 697 696 694 693 692 691 690 689 688 687 685
806 806 807 807 807 807 807 807 807 806 806 806 806 805 805 803 802 801 800 799 798 797 796 795 795 793 792 790 788 786 784 782 779 777 774 771 769 766 762 759 757 755 754 753 751 749 747 744 742 740 738 736 734 732 730 727 725 723 721 719 717 715 713 711 709 708 707 705 703 701 700 699 697 696 695 693 691 690 688 687 687 686 685 684 683
806 807 807 807 807 807 807 807 807 806 806 806 806 805 804 803 802 801 800 800 799 798 797 795 794 793 791 790 788 786 783 781 779 777 774 772 769 766 763 761 759 757 755 753 751 749 746 744 742 739 737 735 732 730 728 726 724 721 719 717 715 713 710 708 706 705 703 702 700 698 697 695 694 693 692 690 688 687 686 684 683 682 682 681 680
806 807 807 807 807 807 807 807 807 806 806 806 806 805 804 803 802 801 800 800 799 798 797 795 793 791 790 788 786 784 782 781 778 776 774 771 769 767 765 763 760 758 755 753 751 748 746 744 742 739 737 734 732 729 727 725 722 720 717 715 712 710 708 706 704 702 700 699 697 695 693 692 691 690 689 687 685 684 683 682 681 679 678 678 677
806 806 807 807 808 807 807 807 806 806 806 806 805 805 804 803 802 801 800 800 799 797 796 795 793 791 789 787 786 784 782 779 777 775 772 770 768 766 764 762 760 758 756 753 751 748 745 743 741 739 736 734 731 729 726 723 721 718 715 712 710 707 705 703 701 700 698 696 694 692 690 689 687 686 685 683 682 681 680 679 678 677 675 675 674
806 806 807 807 807 807 806 806 806 806 806 805 805 804 803 803 802 801 800 799 798 797 796 794 793 792 790 788 786 783 781 778 776 774 772 770 768 766 764 762 760 758 755 752 750 747 745 742 740 737 735 733 730 728 725 722 720 717 714 711 708 705 703 701 698 696 695 693 690 688 687 685 683 682 681 679 678 677 677 676 675 674 673 672 671
806 807 807 807 807 806 805 805 805 805 805 805 804 804 803 802 801 801 800 799 798 797 796 794 793 792 791 789 787 784 782 779 778 775 773 771 769 767 765 762 760 757 755 752 750 747 745 742 739 737 734 732 729 727 724 721 718 715 712 709 706 703 701 698 696 694 692 690 687 685 683 681 680 678 677 676 675 674 673 672 671 670 670 669 669
806 807 807 806 806 805 804 804 804 804 804 804 804 803 803 802 802 801 800 799 798 797 796 795 794 793 791 790 788 785 783 781 778 776 774 772 769 767 765 763 760 757 755 752 749 747 744 742 739 736 734 731 729 726 723 720 717 714 711 708 705 702 699 697 694 692 689 687 684 682 680 678 677 676 674 673 672 671 670 669 668 667 666 666 666
806 806 806 805 805 804 803 804 804 804 804 804 803 803 803 802 802 801 800 799 798 797 796 795 794 793 792 790 788 786 783 781 779 777 774 772 770 767 765 763 760 757 755 752 749 747 744 741 738 736 733 731 728 725 723 720 716 713 710 707 704 701 698 695 693 690 687 684 682 680 678 676 674 672 671 670 668 667 666 665 664 664 664 664 664
806 806 805 805 804 803 803 803 804 804 804 803 803 803 803 802 802 801 800 799 798 797 796 795 794 793 792 790 788 786 784 781 779 777 775 772 770 768 765 763 760 757 755 753 750 747 744 741 738 735 733 730 727 725 722 720 716 713 709 706 703 700 697 694 691 688 685 682 679 677 675 673 671 669 668 666 665 664 663 662 661 661 661 661 661
805 805 805 805 804 804 804 803 804 804 803 803 803 803 803 803 802 801 800 800 799 798 797 796 795 793 792 790 788 786 784 782 780 777 775 773 770 768 765 763 760 757 755 753 750 747 744 741 738 735 732 730 727 724 722 719 716 713 710 706 703 699 696 693 690 687 683 680 677 674 672 669 668 666 664 663 662 661 660 659 659 658 658 658 659
805 805 805 805 804 804 803 803 804 803 803 803 803 803 803 803 802 801 800 800 799 798 798 797 795 794 792 790 788 786 784 782 780 778 775 773 770 768 765 763 760 758 755 752 750 746 743 740 737 735 732 729 727 724 721 719 716 713 710 706 703 699 696 692 688 685 681 678 675 672 669 666 665 663 661 660 659 658 658 657 656 655 655 656 657
805 805 805 805 804 804 804 804 804 803 803 803 803 803 803 802 802 801 801 800 800 799 798 797 796 795 793 791 789 787 785 783 780 778 775 773 770 768 765 763 761 758 755 752 749 746 743 740 738 735 732 729 727 724 721 718 715 712 709 706 703 699 695 691 687 683 679 676 673 669 666 664 662 660 658 657 657 657 656 655 654 654 654 655 657
805 805 805 805 804 804 804 804 804 803 803 803 803 803 803 802 802 802 802 801 801 800 799 798 797 795 793 791 789 787 785 783 781 778 776 773 771 768 766 764 761 759 756 753 749 746 743 741 738 735 733 730 727 724 721 718 715 712 709 706 702 698 694 689 685 681 677 674 671 667 664 661 659 657 656 655 655 656 656 655 655 655 655 656 657
805 806 806 805 805 805 804 804 804 804 803 803 803 803 803 803 803 803 802 802 801 801 800 799 797 795 794 792 790 788 786 784 781 779 776 774 771 769 767 764 762 759 756 753 750 747 744 741 739 736 734 731 728 724 722 719 715 712 709 705 701 698 693 689 685 680 676 673 669 666 663 660 657 654 653 654 654 655 656 656 656 656 657 658 659
806 806 806 805 805 805 805 804 804 804 804 803 804 804 803 803 803 803 803 803 802 801 800 799 798 796 794 793 791 789 787 784 782 779 777 774 772 770 767 765 762 759 756 753 750 747 744 742 740 737 735 732 729 725 723 719 716 712 708 705 701 697 693 688 684 680 676 672 669 665 662 659 656 654 653 654 655 656 656 657 657 658 659 660 661
806 806 806 806 806 805 805 805 805 805 804 804 804 804 804 804 804 804 803 803 803 802 801 800 798 797 795 793 791 789 787 785 782 780 778 775 773 771 768 765 762 759 756 753 751 748 745 743 741 738 736 733 730 727 724 720 717 713 709 706 702 698 693 689 684 680 676 673 670 667 664 661 658 657 656 656 657 658 658 658 659 660 660 662 664
806 807 807 807 806 806 806 806 805 805 805 805 805 805 805 805 804 804 804 804 803 803 802 800 799 798 796 794 792 790 788 786 784 781 779 776 774 771 768 765 762 759 757 754 751 749 747 744 742 740 737 734 731 728 725 722 718 715 711 707 703 699 694 689 686 682 678 675 672 669 666 664 662 661 660 660 660 660 661 661 662 662 663 665 667